sat.trackr.live / text

‹ back to catalog

STARLINK-5197

NORAD 54097 · 2022-136AY

PAYLOAD ACTIVE UNKNOWN

§ Identity

Operator
Country
US
Launch date
2022-10-20
Launch site
AFETR
Launch vehicle
Mass (kg)
RCS (m²)

Purposes: comms

External: N2YO · Heavens-Above · Gunter

§ Orbital elements

Epoch: 2026-05-24T22:01:06.657024Z

Period
95.44 min
Inclination
53.2160°
Eccentricity
0.0001289
Mean motion
15.08837395 rev/d
Perigee alt
538.9 km
Apogee alt
540.6 km
Semi-major
6,917.9 km
B*
2.8566e-5
RAAN
326.8492°
Arg perigee
90.2757°
Mean anomaly
269.8383°
Rev number
19,884

§ Raw data

STARLINK-51971 54097U 22136AY  26144.91743816  .00000167  00000+0  28566-4 0  99992 54097  53.2160 326.8492 0001289  90.2757 269.8383 15.08837395198846

JSON: /api/v1/satellites/54097 · /tle

For live sub-satellite position, see the globe view (requires WebGL).

§ Visibility from observer

Set your observer location to see the next 7 days of passes ≥ 10°. The values pass through the URL so the page stays shareable.

No JS? Fill the form by hand. The geolocation button needs JavaScript.